N370MK KBWI-KHVN

Flight info

Callsign N370MK
Flight time 0h 56m
Altitude 17000
Route DUKPN1 DONIL T287 WNSTN T320 RICED KEYED/N0383F160
Aircraft E55P/M-SBDFGHJ2RWY/LB2

Departure

Time 2026-05-08 16:40
Airport Baltimore/Washington International Thurgood Marshall Airport (KBWI)

Arrival

Time 2026-05-08 17:36
Airport Tweed New Haven Airport (KHVN)
Time Latitude Longitude Altitude Speed Heading
2026-05-08 16:15 39.18513 -76.65695 130 ft 0 kts 144°
2026-05-08 16:33 39.18512 -76.65694 130 ft 0 kts 144°
2026-05-08 16:33 39.18507 -76.65695 130 ft 0 kts 210°
2026-05-08 16:34 39.18502 -76.65699 130 ft 0 kts 210°
2026-05-08 16:34 39.18489 -76.65708 130 ft 4 kts 210°
2026-05-08 16:34 39.18460 -76.65731 130 ft 4 kts 219°
2026-05-08 16:34 39.18441 -76.65766 130 ft 4 kts 232°
2026-05-08 16:35 39.18413 -76.65809 130 ft 8 kts 232°
2026-05-08 16:35 39.18381 -76.65863 131 ft 7 kts 216°
2026-05-08 16:35 39.18328 -76.65846 131 ft 11 kts 144°
2026-05-08 16:35 39.18247 -76.65771 129 ft 17 kts 144°
2026-05-08 16:36 39.18139 -76.65672 126 ft 20 kts 142°
2026-05-08 16:36 39.18019 -76.65561 124 ft 22 kts 144°
2026-05-08 16:36 39.17890 -76.65440 120 ft 23 kts 143°
2026-05-08 16:36 39.17750 -76.65311 116 ft 25 kts 144°
2026-05-08 16:37 39.17679 -76.65252 115 ft 2 kts 188°
2026-05-08 16:37 39.17676 -76.65253 115 ft 0 kts 215°
2026-05-08 16:38 39.17674 -76.65255 115 ft 2 kts 220°
2026-05-08 16:38 39.17651 -76.65293 115 ft 7 kts 233°
2026-05-08 16:38 39.17642 -76.65340 116 ft 3 kts 319°
2026-05-08 16:39 39.17646 -76.65344 116 ft 1 kts 325°
2026-05-08 16:39 39.17882 -76.65564 122 ft 81 kts 324°
2026-05-08 16:39 39.18509 -76.66130 223 ft 131 kts 321°
2026-05-08 16:39 39.19337 -76.66891 646 ft 161 kts 319°
2026-05-08 16:40 39.20238 -76.67929 1194 ft 186 kts 306°
2026-05-08 16:40 39.21105 -76.69324 1792 ft 212 kts 306°
2026-05-08 16:40 39.22147 -76.70785 2463 ft 235 kts 322°
2026-05-08 16:40 39.23751 -76.71281 3322 ft 256 kts
2026-05-08 16:41 39.25373 -76.70292 4414 ft 268 kts 40°
2026-05-08 16:41 39.26263 -76.68225 5441 ft 277 kts 76°
2026-05-08 16:41 39.26100 -76.65745 6354 ft 285 kts 112°
2026-05-08 16:42 39.23223 -76.62491 8183 ft 291 kts 142°
2026-05-08 16:42 39.22143 -76.60262 9099 ft 301 kts 104°
2026-05-08 16:42 39.22160 -76.57616 10005 ft 300 kts 69°
2026-05-08 16:42 39.23040 -76.55244 10913 ft 302 kts 62°
2026-05-08 16:43 39.23700 -76.52632 11790 ft 311 kts 67°
2026-05-08 16:43 39.24310 -76.49939 12589 ft 320 kts 68°
2026-05-08 16:43 39.24920 -76.47143 13443 ft 325 kts 68°
2026-05-08 16:43 39.25537 -76.44289 14249 ft 332 kts 68°
2026-05-08 16:44 39.26161 -76.41415 14991 ft 341 kts 68°
2026-05-08 16:44 39.26826 -76.38351 15014 ft 373 kts 68°
2026-05-08 16:44 39.27548 -76.34998 15209 ft 396 kts 69°
2026-05-08 16:44 39.28283 -76.31572 15886 ft 400 kts 70°
2026-05-08 16:45 39.29025 -76.28092 16686 ft 401 kts 69°
2026-05-08 16:45 39.29775 -76.24598 17330 ft 406 kts 69°
2026-05-08 16:45 39.30530 -76.21082 17849 ft 415 kts 69°
2026-05-08 16:45 39.31323 -76.17381 17973 ft 434 kts 70°
2026-05-08 16:46 39.32131 -76.13577 17990 ft 448 kts 70°
2026-05-08 16:46 39.32949 -76.09724 17979 ft 439 kts 70°
2026-05-08 16:46 39.33740 -76.05985 17977 ft 431 kts 70°
2026-05-08 16:46 39.34533 -76.02264 17998 ft 424 kts 70°
2026-05-08 16:47 39.35303 -75.98611 17999 ft 419 kts 70°
2026-05-08 16:47 39.36071 -75.94992 18004 ft 414 kts 70°
2026-05-08 16:47 39.36828 -75.91402 18004 ft 411 kts 69°
2026-05-08 16:47 39.37567 -75.87883 18000 ft 408 kts 69°
2026-05-08 16:48 39.38322 -75.84313 17998 ft 405 kts 69°
2026-05-08 16:48 39.39058 -75.80805 17996 ft 403 kts 69°
2026-05-08 16:48 39.39788 -75.77327 18001 ft 402 kts 69°
2026-05-08 16:48 39.40522 -75.73823 18000 ft 400 kts 69°
2026-05-08 16:49 39.41253 -75.70329 18002 ft 399 kts 69°
2026-05-08 16:49 39.41968 -75.66876 18001 ft 398 kts 69°
2026-05-08 16:49 39.42695 -75.63408 17996 ft 396 kts 69°
2026-05-08 16:49 39.43406 -75.59988 18006 ft 396 kts 69°
2026-05-08 16:50 39.44125 -75.56525 18004 ft 395 kts 69°
2026-05-08 16:50 39.44834 -75.53081 18011 ft 394 kts 69°
2026-05-08 16:50 39.45548 -75.49647 18007 ft 394 kts 69°
2026-05-08 16:50 39.46255 -75.46231 18002 ft 394 kts 69°
2026-05-08 16:51 39.46955 -75.42844 18005 ft 393 kts 69°
2026-05-08 16:51 39.47657 -75.39422 18010 ft 393 kts 69°
2026-05-08 16:51 39.48360 -75.36011 18006 ft 393 kts 70°
2026-05-08 16:51 39.49057 -75.32600 17996 ft 392 kts 70°
2026-05-08 16:52 39.49764 -75.29167 18001 ft 391 kts 70°
2026-05-08 16:52 39.50454 -75.25783 17994 ft 391 kts 70°
2026-05-08 16:52 39.51153 -75.22348 17983 ft 391 kts 70°
2026-05-08 16:52 39.51844 -75.18977 17990 ft 390 kts 70°
2026-05-08 16:53 39.53219 -75.12212 18000 ft 390 kts 70°
2026-05-08 16:53 39.53906 -75.08832 17997 ft 390 kts 70°
2026-05-08 16:53 39.54600 -75.05407 18011 ft 390 kts 70°
2026-05-08 16:54 39.55290 -75.02007 18009 ft 390 kts 70°
2026-05-08 16:54 39.55982 -74.98570 17983 ft 391 kts 70°
2026-05-08 16:54 39.56661 -74.95183 18015 ft 390 kts 70°
2026-05-08 16:54 39.57347 -74.91789 17989 ft 391 kts 70°
2026-05-08 16:55 39.58035 -74.88364 18001 ft 390 kts 70°
2026-05-08 16:55 39.58713 -74.84985 18000 ft 391 kts 70°
2026-05-08 16:55 39.59396 -74.81583 18000 ft 390 kts 70°
2026-05-08 16:55 39.60075 -74.78181 17989 ft 390 kts 70°
2026-05-08 16:56 39.60759 -74.74753 17995 ft 389 kts 70°
2026-05-08 16:56 39.61435 -74.71354 18006 ft 389 kts 70°
2026-05-08 16:56 39.62113 -74.67960 18004 ft 390 kts 70°
2026-05-08 16:56 39.62783 -74.64581 18002 ft 390 kts 70°
2026-05-08 16:57 39.63462 -74.61153 17984 ft 390 kts 70°
2026-05-08 16:57 39.64131 -74.57780 18006 ft 390 kts 70°
2026-05-08 16:57 39.64807 -74.54352 17983 ft 390 kts 70°
2026-05-08 16:57 39.65471 -74.50993 18013 ft 390 kts 70°
2026-05-08 16:58 39.66144 -74.47581 18006 ft 390 kts 70°
2026-05-08 16:58 39.66816 -74.44160 18009 ft 391 kts 70°
2026-05-08 16:58 39.67485 -74.40737 17997 ft 391 kts 70°
2026-05-08 16:58 39.68160 -74.37306 17996 ft 391 kts 70°
2026-05-08 16:59 39.68824 -74.33914 17989 ft 391 kts 71°
2026-05-08 16:59 39.69498 -74.30468 17991 ft 391 kts 71°
2026-05-08 16:59 39.70161 -74.27059 17990 ft 390 kts 71°
2026-05-08 16:59 39.70819 -74.23666 17980 ft 390 kts 71°
2026-05-08 17:00 39.71478 -74.20280 17979 ft 389 kts 71°
2026-05-08 17:00 39.72152 -74.16830 17979 ft 389 kts 71°
2026-05-08 17:00 39.72797 -74.13465 17979 ft 389 kts 71°
2026-05-08 17:00 39.73465 -74.10027 17975 ft 388 kts 71°
2026-05-08 17:01 39.74119 -74.06660 17977 ft 388 kts 71°
2026-05-08 17:01 39.74770 -74.03262 17977 ft 388 kts 71°
2026-05-08 17:01 39.75422 -73.99872 17977 ft 388 kts 71°
2026-05-08 17:01 39.76075 -73.96479 17983 ft 388 kts 71°
2026-05-08 17:02 39.76726 -73.93069 17967 ft 387 kts 71°
2026-05-08 17:02 39.77374 -73.89693 17971 ft 387 kts 71°
2026-05-08 17:02 39.78022 -73.86304 17962 ft 386 kts 71°
2026-05-08 17:02 39.78661 -73.82937 17969 ft 386 kts 71°
2026-05-08 17:03 39.79302 -73.79578 17973 ft 386 kts 71°
2026-05-08 17:03 39.79950 -73.76171 17972 ft 386 kts 71°
2026-05-08 17:03 39.80586 -73.72823 17965 ft 386 kts 71°
2026-05-08 17:03 39.81235 -73.69440 17955 ft 384 kts 69°
2026-05-08 17:04 39.82408 -73.66425 17976 ft 365 kts 43°
2026-05-08 17:04 39.84043 -73.63923 17968 ft 364 kts 42°
2026-05-08 17:04 39.85664 -73.61395 17972 ft 364 kts 42°
2026-05-08 17:04 39.87276 -73.58856 17964 ft 365 kts 42°
2026-05-08 17:05 39.88890 -73.56297 17972 ft 365 kts 42°
2026-05-08 17:05 39.90523 -73.53810 17967 ft 360 kts 36°
2026-05-08 17:05 39.92382 -73.51628 17963 ft 357 kts 33°
2026-05-08 17:05 39.94206 -73.49475 17969 ft 357 kts 33°
2026-05-08 17:06 39.96041 -73.47316 17974 ft 357 kts 33°
2026-05-08 17:06 39.97887 -73.45136 17959 ft 357 kts 33°
2026-05-08 17:06 39.99730 -73.42955 17970 ft 357 kts 33°
2026-05-08 17:06 40.01563 -73.40786 17959 ft 358 kts 33°
2026-05-08 17:07 40.03416 -73.38584 17958 ft 357 kts 33°
2026-05-08 17:07 40.05244 -73.36418 17970 ft 357 kts 33°
2026-05-08 17:07 40.07070 -73.34252 17963 ft 357 kts 34°
2026-05-08 17:07 40.08910 -73.32066 17959 ft 357 kts 34°
2026-05-08 17:08 40.10743 -73.29887 17958 ft 356 kts 34°
2026-05-08 17:08 40.12582 -73.27696 17956 ft 356 kts 34°
2026-05-08 17:08 40.14412 -73.25517 17962 ft 356 kts 34°
2026-05-08 17:08 40.16233 -73.23344 17959 ft 356 kts 34°
2026-05-08 17:09 40.18062 -73.21159 17960 ft 355 kts 34°
2026-05-08 17:09 40.19878 -73.18990 17967 ft 355 kts 34°
2026-05-08 17:09 40.21701 -73.16814 17974 ft 355 kts 34°
2026-05-08 17:09 40.23530 -73.14626 17961 ft 355 kts 34°
2026-05-08 17:10 40.25341 -73.12457 17963 ft 355 kts 34°
2026-05-08 17:10 40.27168 -73.10270 17963 ft 355 kts 34°
2026-05-08 17:10 40.29007 -73.08070 17966 ft 355 kts 34°
2026-05-08 17:10 40.30819 -73.05894 17958 ft 355 kts 34°
2026-05-08 17:11 40.32631 -73.03723 17966 ft 355 kts 34°
2026-05-08 17:11 40.34464 -73.01527 17970 ft 355 kts 34°
2026-05-08 17:11 40.36292 -72.99332 17674 ft 364 kts 34°
2026-05-08 17:11 40.38188 -72.97060 17286 ft 374 kts 35°
2026-05-08 17:12 40.40123 -72.94735 16879 ft 381 kts 35°
2026-05-08 17:12 40.42073 -72.92381 16484 ft 385 kts 36°
2026-05-08 17:12 40.44053 -72.89997 16079 ft 389 kts 36°
2026-05-08 17:12 40.46060 -72.87569 15652 ft 392 kts 36°
2026-05-08 17:13 40.48074 -72.85137 15214 ft 393 kts 36°
2026-05-08 17:13 40.50061 -72.82733 14776 ft 390 kts 36°
2026-05-08 17:13 40.52027 -72.80353 14347 ft 386 kts 36°
2026-05-08 17:13 40.53988 -72.77975 13794 ft 373 kts 36°
2026-05-08 17:14 40.55829 -72.75734 13335 ft 349 kts 36°
2026-05-08 17:14 40.57604 -72.73583 12920 ft 340 kts 35°
2026-05-08 17:14 40.59298 -72.71525 12548 ft 331 kts 36°
2026-05-08 17:14 40.61055 -72.69768 12397 ft 302 kts 16°
2026-05-08 17:15 40.63006 -72.69276 12180 ft 281 kts 352°
2026-05-08 17:15 40.64984 -72.69273 11839 ft 281 kts 352°
2026-05-08 17:15 40.66935 -72.69279 11484 ft 280 kts 353°
2026-05-08 17:15 40.68858 -72.69281 11179 ft 279 kts 353°
2026-05-08 17:16 40.70798 -72.69275 10869 ft 277 kts 353°
2026-05-08 17:16 40.72711 -72.69250 10724 ft 272 kts 356°
2026-05-08 17:16 40.74580 -72.68989 10638 ft 265 kts 358°
2026-05-08 17:16 40.76406 -72.68732 10636 ft 268 kts 358°
2026-05-08 17:17 40.78271 -72.68449 10648 ft 270 kts 359°
2026-05-08 17:17 40.80148 -72.68160 10648 ft 271 kts 359°
2026-05-08 17:17 40.82032 -72.67863 10643 ft 271 kts 359°
2026-05-08 17:17 40.83895 -72.67572 10646 ft 271 kts 359°
2026-05-08 17:18 40.85767 -72.67275 10652 ft 271 kts 359°
2026-05-08 17:18 40.87654 -72.66978 10647 ft 271 kts 359°
2026-05-08 17:18 40.89527 -72.66679 10645 ft 271 kts 359°
2026-05-08 17:18 40.91394 -72.66388 10648 ft 271 kts 359°
2026-05-08 17:19 40.93274 -72.66085 10644 ft 271 kts 359°
2026-05-08 17:19 40.95136 -72.65794 10639 ft 272 kts 359°
2026-05-08 17:19 40.97036 -72.65492 10634 ft 272 kts 359°
2026-05-08 17:19 40.98899 -72.65196 10633 ft 272 kts 359°
2026-05-08 17:20 41.00792 -72.64897 10631 ft 272 kts 359°
2026-05-08 17:20 41.02669 -72.64597 10632 ft 272 kts 359°
2026-05-08 17:20 41.04540 -72.64301 10630 ft 272 kts 359°
2026-05-08 17:20 41.06435 -72.63997 10627 ft 272 kts 359°
2026-05-08 17:21 41.08291 -72.63705 10625 ft 272 kts 359°
2026-05-08 17:21 41.10184 -72.63403 10623 ft 272 kts 359°
2026-05-08 17:21 41.12063 -72.63103 10627 ft 273 kts 359°
2026-05-08 17:21 41.13977 -72.62798 10622 ft 273 kts 359°
2026-05-08 17:22 41.15868 -72.62499 10361 ft 282 kts 359°
2026-05-08 17:22 41.17863 -72.62185 10010 ft 293 kts 360°
2026-05-08 17:22 41.19875 -72.61854 9663 ft 283 kts 360°
2026-05-08 17:22 41.21790 -72.61548 9341 ft 272 kts 360°
2026-05-08 17:23 41.23627 -72.61252 9078 ft 262 kts 359°
2026-05-08 17:23 41.25411 -72.60970 8832 ft 254 kts 360°
2026-05-08 17:23 41.27143 -72.60693 8603 ft 247 kts 360°
2026-05-08 17:23 41.28840 -72.60422 8369 ft 241 kts
2026-05-08 17:24 41.30483 -72.60157 8141 ft 239 kts 360°
2026-05-08 17:24 41.32166 -72.59892 7887 ft 243 kts
2026-05-08 17:24 41.33841 -72.59624 7621 ft 247 kts
2026-05-08 17:24 41.35580 -72.59344 7338 ft 251 kts
2026-05-08 17:25 41.37324 -72.59065 7050 ft 254 kts
2026-05-08 17:25 41.39076 -72.58785 6758 ft 257 kts
2026-05-08 17:25 41.40853 -72.58498 6461 ft 259 kts
2026-05-08 17:25 41.42650 -72.58209 6162 ft 261 kts
2026-05-08 17:26 41.44458 -72.57918 5861 ft 262 kts
2026-05-08 17:26 41.46282 -72.57622 5560 ft 262 kts
2026-05-08 17:26 41.48079 -72.57330 5272 ft 258 kts
2026-05-08 17:26 41.49802 -72.57343 5199 ft 236 kts 338°
2026-05-08 17:27 41.51014 -72.58569 5188 ft 212 kts 297°
2026-05-08 17:27 41.51288 -72.60384 5178 ft 199 kts 266°
2026-05-08 17:27 41.51086 -72.62204 5157 ft 197 kts 258°
2026-05-08 17:27 41.50715 -72.63943 5138 ft 196 kts 253°
2026-05-08 17:28 41.50265 -72.65662 5115 ft 195 kts 252°
2026-05-08 17:28 41.49789 -72.67372 4966 ft 201 kts 251°
2026-05-08 17:28 41.49281 -72.69144 4741 ft 208 kts 251°
2026-05-08 17:28 41.48756 -72.70963 4501 ft 212 kts 250°
2026-05-08 17:29 41.48219 -72.72807 4256 ft 213 kts 251°
2026-05-08 17:29 41.47687 -72.74635 4016 ft 212 kts 250°
2026-05-08 17:29 41.47155 -72.76466 3777 ft 212 kts 250°
2026-05-08 17:29 41.46627 -72.78277 3542 ft 211 kts 251°
2026-05-08 17:30 41.46093 -72.80109 3304 ft 210 kts 251°
2026-05-08 17:30 41.45570 -72.81902 3072 ft 209 kts 251°
2026-05-08 17:30 41.45045 -72.83710 2840 ft 205 kts 250°
2026-05-08 17:30 41.44535 -72.85435 2626 ft 197 kts 251°
2026-05-08 17:31 41.43914 -72.86985 2572 ft 185 kts 225°
2026-05-08 17:31 41.42761 -72.87566 2577 ft 177 kts 189°
2026-05-08 17:31 41.41570 -72.87688 2577 ft 168 kts 191°
2026-05-08 17:31 41.40417 -72.87800 2585 ft 163 kts 189°
2026-05-08 17:32 41.39291 -72.87889 2586 ft 162 kts 189°
2026-05-08 17:32 41.38193 -72.87970 2539 ft 161 kts 189°
2026-05-08 17:32 41.37079 -72.88048 2326 ft 155 kts 189°
2026-05-08 17:32 41.36059 -72.88116 2081 ft 142 kts 189°
2026-05-08 17:33 41.35092 -72.88181 1850 ft 135 kts 189°
2026-05-08 17:33 41.34174 -72.88249 1648 ft 127 kts 189°
2026-05-08 17:33 41.33460 -72.88296 1485 ft 121 kts 189°
2026-05-08 17:33 41.32811 -72.88341 1326 ft 117 kts 189°
2026-05-08 17:34 41.32002 -72.88396 1150 ft 110 kts 188°
2026-05-08 17:34 41.31256 -72.88449 977 ft 110 kts 189°
2026-05-08 17:34 41.30447 -72.88503 827 ft 114 kts 187°
2026-05-08 17:34 41.29644 -72.88551 637 ft 115 kts 187°
2026-05-08 17:35 41.28846 -72.88610 455 ft 111 kts 187°
2026-05-08 17:35 41.28079 -72.88652 254 ft 110 kts 186°
2026-05-08 17:35 41.27335 -72.88702 94 ft 104 kts 188°
2026-05-08 17:35 41.26662 -72.88754 22 ft 87 kts 186°
2026-05-08 17:36 41.26116 -72.88791 23 ft 69 kts 187°
2026-05-08 17:36 41.25727 -72.88818 24 ft 39 kts 184°
2026-05-08 17:36 41.25613 -72.88797 25 ft 9 kts 97°
2026-05-08 17:36 41.25639 -72.88721 24 ft 10 kts 16°
2026-05-08 17:37 41.25714 -72.88715 24 ft 11 kts
2026-05-08 17:37 41.25796 -72.88711 24 ft 12 kts
2026-05-08 17:37 41.25885 -72.88699 24 ft 13 kts 10°
2026-05-08 17:37 41.25980 -72.88675 23 ft 14 kts 11°
2026-05-08 17:38 41.26082 -72.88651 23 ft 15 kts 10°
2026-05-08 17:38 41.26192 -72.88625 23 ft 16 kts
2026-05-08 17:38 41.26304 -72.88576 23 ft 17 kts 37°
2026-05-08 17:38 41.26405 -72.88474 22 ft 16 kts 37°
2026-05-08 17:39 41.26461 -72.88474 22 ft 10 kts 311°
2026-05-08 17:39 41.26514 -72.88555 22 ft 12 kts 312°
2026-05-08 17:39 41.26585 -72.88612 22 ft 12 kts
2026-05-08 17:39 41.26675 -72.88603 22 ft 8 kts 22°
2026-05-08 17:40 41.26676 -72.88533 22 ft 8 kts 119°
2026-05-08 17:40 41.26642 -72.88464 22 ft 9 kts 116°
2026-05-08 17:40 41.26619 -72.88383 22 ft 9 kts 111°
2026-05-08 17:40 41.26610 -72.88357 22 ft 2 kts 68°
2026-05-08 17:41 41.26619 -72.88348 22 ft 0 kts 30°
2026-05-08 17:41 41.26622 -72.88345 22 ft 0 kts 32°
2026-05-08 17:41 41.26624 -72.88345 22 ft 1 kts 13°
2026-05-08 17:41 41.26624 -72.88360 22 ft 2 kts 217°
2026-05-08 17:42 41.26614 -72.88354 22 ft 0 kts 122°
2026-05-08 17:42 41.26615 -72.88350 22 ft 0 kts 40°
2026-05-08 17:42 41.26618 -72.88348 22 ft 0 kts 19°
2026-05-08 17:42 41.26620 -72.88347 22 ft 0 kts 27°
2026-05-08 17:43 41.26621 -72.88347 22 ft 0 kts 34°